Погода в Гехи-Чу

Россия / Чеченская Республика     43°05′45″N   45°24′23″E
темп.,
°C
ветер,
м/с
пор.,
м/с
влажн.,
%
обл.,
%
осадки,
мм/ч
давл.,
гПа
погр.,
м
6 мая, чт
чт600:00+6ююз218657 0.0 101813
03:00+5ююз22785 0.0 101819
06:00+8ю11691 0.0 101645
09:00+14ссв22550 0.0 1014677
12:00+16ссв32540 0.0 1013979
15:00+17ссв32543 0.0 10121065
18:00+13ссв22706 0.0 1013292
21:00+8юз11865 0.1 101512
7 мая, пт
пт700:00+9ююз1179100 0.0 101414
03:00+8юз117638 0.0 101510
06:00+10ююз116770 0.0 101534
09:00+15ссв215899 0.0 1016613
12:00+18ссв335664 0.0 10161120
15:00+18с335325 0.2 10161364
18:00+15с116414 0.2 1017156
21:00+11ююз227825 0.2 101923
8 мая, сб
сб800:00+11ююз22808 0.0 101918
03:00+10ююз22790 0.0 101826
06:00+12ю22691 0.0 101842
09:00+18св22490 0.0 1016752
12:00+20ссв32475 0.0 10141017
15:00+20св33557 0.0 10131119
18:00+16св1278100 0.0 1013161
21:00+13ююз1183100 0.0 101318
9 мая, вс
вс900:00+12ююз226926 0.0 101126
03:00+12ю32610 0.0 101030
06:00+14ююз2257100 0.0 100844
09:00+19с324796 0.0 1006442
12:00+20с556095 0.0 10091382
15:00+13зсз2594100 1.8 1011368
18:00+13зсз2795100 3.1 1014439
21:00+6сз4893100 7.4 1021697
10 мая, пн
пн1000:00+4зсз2694100 1.2 1024672
03:00+4з2589100 2.0 1024711
06:00+3юз2494100 3.6 1024344
09:00+6ююз2379100 6.4 1023819
12:00+11с234962 0.6 10211973
15:00+11ссв225190 0.8 10191572
18:00+8ююз116998 0.1 1020360
21:00+6ююз228282 0.2 102256